Simultaneous Nadir Overpasses (SNOs) Predictions

Prediction of SNOs between GOES-17 and METOP-C Satellite Orbit:

Table of predicted SNOs for the next 14.0 days since TLE Epoch: 12/24/2022
Index Date Time (GOES-17) GOES-17 Lat,Lon METOP-C Lat,Lon Distance(km) Time Diff (sec)
1 12/24/2022 06:41:04 0.00,-137.34 0.02,-137.31 2.87 80
2 12/26/2022 18:39:17 -0.00,-137.32 -0.13,-136.88 51.19 80
3 12/28/2022 06:55:36 0.00,-137.31 -0.92,-141.47 473.29 80
4 12/29/2022 06:37:36 -0.00,-137.31 0.20,-136.47 95.37 80
5 12/30/2022 18:53:48 0.00,-137.30 0.84,-141.03 425.20 80
6 12/31/2022 18:35:48 0.00,-137.29 -0.29,-136.03 143.25 80
7 01/02/2023 06:52:08 0.00,-137.27 -0.77,-140.62 382.05 80
8 01/03/2023 06:34:08 -0.00,-137.26 0.36,-135.62 185.98 80
9 01/04/2023 18:50:19 0.00,-137.24 0.65,-140.18 335.65 80
10 01/05/2023 18:32:20 0.01,-137.22 -0.48,-135.19 232.09 80
